Regional Weather Roundup
Issued by NWS Nashville, TN

Home | Current Version | Previous Version | Text Only | Print | Product List | Glossary On
Versions: 1 2 3 4 5 6 7 8 9 10 11 12 13 14 15 16 17 18 19 20 21 22 23 24 25 26 27 28 29 30 31 32 33 34 35 36 37 38 39 40 41 42 43 44 45 46 47 48 49 50
000
ASUS44 KOHX 221015
RWROHX
MIDDLE TENNESSEE HOURLY WEATHER ROUNDUP
NATIONAL WEATHER SERVICE NASHVILLE TN
500 AM CDT MON SEP 22 2014

NOTE: "FAIR" INDICATES FEW OR NO CLOUDS BELOW 12,000 FEET WITH
NO SIGNIFICANT WEATHER AND/OR OBSTRUCTIONS TO VISIBILITY.

* THESE REPORTS ARE NOT UNDER NWS QUALITY CONTROL AND MAY NOT
  REPORT WEATHER SUCH AS PRECIPITATION AND FOG.


TNZ005>011-023>034-057-059-062>066-078-080-221100
...NORTHERN MIDDLE TENNESSEE...

CITY           SKY/WX    TMP DP  RH WIND       PRES   REMARKS
CLARKSVILLE    CLEAR     52  48  86 N8        30.14R
CROSSVILLE     CLEAR     54  47  77 NE6       30.11R
GALLATIN         N/A     56  51  83 N7        30.13R
DICKSON        CLEAR     54  48  82 N3        30.12S
LEBANON        CLEAR     53  50  90 N3        30.11R
LIVINGSTON     CLEAR     55  48  77 NE7       30.11R
NASHVILLE      CLEAR     57  50  77 N6        30.13R
WEST NASHVILLE   N/A     55  52  88 CALM      30.12R
PORTLAND       CLEAR     52  48  87 CALM      30.12R
SMYRNA         CLEAR     57  52  84 N8        30.13R
SPARTA         CLEAR     46  46 100 CALM      30.10R
$$
TNZ056-058-060-061-075>077-079-093>097-221100
...SOUTHERN MIDDLE TENNESSEE...

CITY           SKY/WX    TMP DP  RH WIND       PRES   REMARKS
COLUMBIA       CLEAR     54  54 100 CALM      30.10S
FAYETTEVILLE   CLEAR     55  48  76 N6        30.09R
LEWISBURG      CLEAR     51  49  93 CALM      30.11R
MCMINNVILLE    CLEAR     52  52 100 CALM      30.10R
MURFREESBORO   CLEAR     57  51  80 CALM      30.11R
SHELBYVILLE    CLEAR     54  52  94 N7        30.11R
TULLAHOMA      CLEAR     54  48  82 N3        30.11R
WINCHESTER     CLEAR     54  52  94 CALM      30.09R
$$


...KEY TO REMARKS...
VSB - VISIBILITY IN MILES
WCI - WIND CHILL INDEX
HX  - HEAT INDEX



USA.gov is the U.S. government's official web portal to all federal, state and local government web resources and services.